[[{"header":{"parameterUnit":"m.s-1","parameterCategory":2,"la1":30.2991,"la2":30.254,"lo1":-89.0895,"lo2":-89.0444,"dy":0.0017,"dx":0.0017,"nx":28,"ny":28,"refTime":"2023-08-03T21:00:00:Z","depth":"0","parameterNumber":2,"parameterNumberName":"U-component_of_CURRENTS"},"data":[0,0,0,0,0,0,0,0,0,0,0,0,0,0,0,0,0,0,0,0,0,0,0,0,0,0,0,0,0,0,0,0,0,0,0,0,0,0,0,0,0,0,0,0,0,0,0,0,0,0,0,0,0,0,0,0,0,0,0.2218,0.2218,0,0.2269,0.227,0.2271,0.2309,0.2309,0.2309,0.2309,0.211,0.2105,0.21,0,0,0,0,0,0,0,0,0,0,0,0,0,0.2108,0.211,0.2218,0.2218,0.2219,0.2269,0.227,0.2271,0.2309,0.2309,0.2309,0.2309,0.2111,0.2105,0.2099,0,0,0,0,0,0,0,0,0,0,0,0,0,0.2162,0.2111,0.2218,0.224,0.2242,0.2269,0.227,0.2272,0.2309,0.2309,0.2309,0.2309,0.2113,0.2106,0.2098,0.2054,0,0,0.2075,0.2071,0,0,0,0,0,0,0,0,0.2159,0.2167,0.2236,0.2238,0.2241,0.2278,0.2158,0.2185,0.2309,0.2289,0.2309,0.2309,0.2139,0.213,0.2151,0.2045,0.2037,0.2074,0.2069,0.2066,0.2064,0,0,0,0,0,0,0,0.2155,0.2164,0.2244,0.2236,0.2239,0.223,0.2239,0.2165,0.2214,0.2291,0.2293,0.229,0.214,0.2159,0.2145,0.2034,0.2074,0.2067,0.2062,0.2059,0.1959,0.1961,0,0,0,0,0,0,0.2142,0.2161,0.2242,0.2245,0.2192,0.2232,0.2242,0.2271,0.2221,0.2213,0.229,0.2291,0.2172,0.2155,0.2138,0.2158,0.2066,0.2059,0.2054,0.1957,0.1959,0.1961,0,0,0,0,0,0,0.214,0.215,0.224,0.2198,0.2208,0.2234,0.2266,0.2271,0.2292,0.2222,0.2211,0.2304,0.2171,0.2149,0.2119,0.2147,0.2055,0.2048,0.1955,0.1958,0.196,0.2147,0,0,0,0,0,0,0.2137,0.2149,0.2168,0.2198,0.221,0.2259,0.2266,0.2272,0.2288,0.2291,0.2229,0.2212,0.2169,0.2131,0.2111,0.2134,0.2042,0.1952,0.1956,0.1959,0.2138,0.2156,0.2171,0,0,0,0,0,0.2133,0.2152,0.217,0.2178,0.2235,0.2259,0.2266,0.2285,0.2289,0.2303,0.2291,0.2214,0.214,0.2127,0.2103,0.2124,0.195,0.1955,0.1959,0.2131,0.2152,0.2171,0,0,0,0,0,0,0.2119,0.2158,0.2178,0.2211,0.2235,0.2264,0.2264,0.2286,0.2294,0.2284,0.2236,0.2218,0.2209,0.2135,0.2123,0.2108,0.2031,0.2031,0.217,0.2189,0.2205,0.2178,0.2036,0,0,0,0,0,0.2123,0.2151,0.2183,0.2213,0.2212,0.2241,0.2252,0.2271,0.2277,0.2283,0.2262,0.2226,0.2209,0.2175,0.2142,0.2113,0.2089,0.2111,0.2128,0.2142,0.2105,0.2152,0.217,0.1976,0.1976,0.1976,0,0,0.2134,0.215,0.2174,0.2211,0.222,0.224,0.2248,0.226,0.2299,0.2248,0.2286,0.2277,0.2218,0.2228,0.2211,0.2164,0.2197,0.2148,0.2161,0.2114,0.2159,0.2178,0.2194,0.1979,0.1979,0.1978,0,0,0.2138,0.2169,0.218,0.2194,0.2204,0.2232,0.2235,0.2275,0.2307,0.2338,0.2338,0.2354,0.2303,0.2307,0.2288,0.2355,0.2294,0.234,0.2381,0.2431,0.2448,0.2461,0.2512,0.2529,0.2335,0.2336,0.2336,0,0.2141,0.2171,0.2187,0.2186,0.2199,0.2228,0.2243,0.2284,0.2328,0.2352,0.2355,0.2377,0.2342,0.2365,0.2414,0.239,0.2408,0.2321,0.2455,0.2468,0.2479,0.2527,0.2543,0.2345,0.2344,0.2343,0.2342,0,0.2153,0.2169,0.2164,0.2191,0.2212,0.2224,0.227,0.2316,0.2358,0.2402,0.2453,0.2462,0.2463,0.2485,0.2465,0.253,0.252,0.2491,0.2412,0.251,0.2554,0.2568,0.2359,0.2355,0.2353,0.235,0,0,0.2162,0.2175,0.2171,0.2178,0.2213,0.2231,0.2291,0.2353,0.2393,0.2459,0.2516,0.2553,0.2567,0.2547,0.2555,0.26,0.2738,0.2582,0.258,0.2643,0.2864,0.2835,0.2846,0.2751,0.2753,0.2754,0.2885,0,0.2161,0.2165,0.2183,0.2206,0.2208,0.2255,0.2314,0.2375,0.2434,0.2501,0.254,0.2584,0.2589,0.2609,0.2665,0.2704,0.2771,0.2704,0.2744,0.2745,0.2717,0.2859,0.2734,0.2837,0.2898,0.29,0.2901,0,0.2147,0.2157,0.2172,0.2208,0.2214,0.2246,0.2327,0.2385,0.2475,0.2518,0.2573,0.2606,0.2682,0.2676,0.2798,0.2762,0.2818,0.2858,0.2864,0.276,0.2739,0.2735,0.2858,0.2737,0.2921,0.2919,0.2918,0,0.2119,0.214,0.2156,0.2165,0.2223,0.2248,0.2296,0.2383,0.2431,0.2524,0.2562,0.2651,0.2693,0.2782,0.286,0.2847,0.2992,0.2979,0.3012,0.3011,0.2862,0.2844,0.2865,0.3075,0.3074,0.3074,0.3074,0,0.2096,0.2093,0.2139,0.2142,0.217,0.2224,0.2272,0.2331,0.2419,0.2462,0.2558,0.2607,0.2724,0.2814,0.2888,0.299,0.3019,0.3034,0.3048,0.293,0.2917,0.2763,0.2715,0.3079,0.3078,0.3077,0.3076,0,0.2025,0.2063,0.2065,0.2126,0.2143,0.2157,0.2231,0.2265,0.2367,0.2425,0.2456,0.2592,0.2715,0.283,0.2973,0.3015,0.3033,0.3143,0.2998,0.2992,0.2898,0.2865,0.2819,0.2754,0.3215,0.3215,0.3215,0,0.1987,0.198,0.2024,0.202,0.2033,0.2072,0.2096,0.2212,0.2249,0.2406,0.2421,0.2574,0.2668,0.2879,0.2993,0.314,0.303,0.3083,0.3025,0.2889,0.2864,0.2775,0.2717,0.2933,0.293,0.2929,0.2927,0,0.189,0.1899,0.1894,0.1905,0.1916,0.1945,0.1992,0.2032,0.2169,0.2253,0.237,0.2472,0.2688,0.2785,0.2965,0.3034,0.2914,0.3051,0.2943,0.2672,0.254,0.2483,0.2856,0.2911,0.2913,0.2914,0.2915,0.2915,0.1782,0.1757,0.1758,0.1763,0.1777,0.1808,0.183,0.1905,0.1991,0.2114,0.2259,0.2365,0.2524,0.2781,0.2841,0.2816,0.2857,0.2735,0.2724,0.266,0.2529,0.2871,0.2913,0.2914,0.2916,0.2917,0.2918,0,0.1659,0.1646,0.1624,0.1632,0.1627,0.1688,0.1747,0.1781,0.1868,0.1968,0.2098,0.2206,0.2314,0.2427,0.253,0.2484,0.2413,0.2397,0.2217,0.2193,0.2523,0.2437,0.2333,0.2333,0.2333,0.2334,0.2334,0.2334,0.1578,0.1529,0.154,0.1499,0.1512,0.1519,0.1561,0.162,0.1685,0.1756,0.1795,0.1899,0.2056,0.2163,0.2145,0.2126,0.1982,0.1919,0.1936,0.2121,0.2149,0.2176,0.2082,0.1906,0.1905,0.1504,0.15,0.1498]},{"header":{"parameterUnit":"m.s-1","parameterCategory":2,"la1":30.2991,"la2":30.254,"lo1":-89.0895,"lo2":-89.0444,"dy":0.0017,"dx":0.0017,"nx":28,"ny":28,"refTime":"2023-08-03T21:00:00:Z","depth":"0","parameterNumber":3,"parameterNumberName":"V-component_of_CURRENTS"},"data":[0,0,0,0,0,0,0,0,0,0,0,0,0,0,0,0,0,0,0,0,0,0,0,0,0,0,0,0,0,0,0,0,0,0,0,0,0,0,0,0,0,0,0,0,0,0,0,0,0,0,0,0,0,0,0,0,0,0,-0.084,-0.0839,0,-0.0785,-0.0785,-0.0784,-0.0774,-0.0774,-0.0774,-0.0774,-0.0718,-0.0717,-0.0715,0,0,0,0,0,0,0,0,0,0,0,0,0,-0.0853,-0.0853,-0.084,-0.0839,-0.0838,-0.0785,-0.0785,-0.0784,-0.0773,-0.0774,-0.0774,-0.0775,-0.0719,-0.0717,-0.0715,0,0,0,0,0,0,0,0,0,0,0,0,0,-0.0829,-0.0853,-0.084,-0.0825,-0.0823,-0.0785,-0.0785,-0.0784,-0.0773,-0.0774,-0.0774,-0.0775,-0.072,-0.0717,-0.0714,-0.0689,0,0,-0.0706,-0.0705,0,0,0,0,0,0,0,0,-0.0831,-0.0829,-0.0828,-0.0826,-0.0824,-0.0785,-0.0769,-0.0752,-0.0773,-0.0794,-0.0774,-0.0775,-0.0739,-0.0735,-0.0726,-0.0686,-0.0684,-0.0706,-0.0704,-0.0703,-0.0702,0,0,0,0,0,0,0,-0.0832,-0.0831,-0.0819,-0.0827,-0.0825,-0.0793,-0.0792,-0.0765,-0.0766,-0.0792,-0.0791,-0.0782,-0.0738,-0.0728,-0.0724,-0.0683,-0.0706,-0.0704,-0.0702,-0.0701,-0.0611,-0.061,0,0,0,0,0,0,-0.084,-0.0833,-0.0821,-0.0818,-0.0827,-0.0793,-0.0791,-0.0798,-0.0766,-0.0761,-0.0782,-0.0782,-0.0733,-0.0727,-0.0722,-0.0684,-0.0703,-0.0701,-0.0699,-0.0611,-0.061,-0.061,0,0,0,0,0,0,-0.0841,-0.084,-0.0823,-0.0822,-0.0817,-0.0793,-0.0801,-0.0797,-0.0791,-0.0758,-0.0754,-0.078,-0.0733,-0.0726,-0.0697,-0.0682,-0.07,-0.0697,-0.0612,-0.0611,-0.061,-0.061,0,0,0,0,0,0,-0.0842,-0.0841,-0.0844,-0.0823,-0.0818,-0.0794,-0.08,-0.0796,-0.0784,-0.0784,-0.0755,-0.075,-0.0733,-0.0701,-0.0694,-0.0678,-0.0695,-0.0613,-0.0612,-0.061,-0.0611,-0.0609,-0.0607,0,0,0,0,0,-0.0843,-0.0839,-0.0845,-0.0843,-0.0825,-0.0793,-0.0787,-0.0771,-0.0783,-0.077,-0.0757,-0.0751,-0.0687,-0.0698,-0.0691,-0.0673,-0.0614,-0.0612,-0.0611,-0.0612,-0.061,-0.0607,0,0,0,0,0,0,-0.0841,-0.0837,-0.0843,-0.0839,-0.0817,-0.079,-0.077,-0.0774,-0.0754,-0.0755,-0.074,-0.0733,-0.0706,-0.0687,-0.07,-0.0642,-0.0649,-0.0646,-0.0653,-0.065,-0.0648,-0.0646,-0.0693,0,0,0,0,0,-0.0845,-0.0846,-0.0831,-0.0826,-0.0812,-0.0797,-0.0782,-0.0777,-0.0757,-0.075,-0.0731,-0.071,-0.069,-0.067,-0.0649,-0.0612,-0.061,-0.0595,-0.0593,-0.0592,-0.0584,-0.0583,-0.058,-0.0604,-0.0604,-0.0604,0,0,-0.0845,-0.084,-0.0842,-0.0826,-0.0806,-0.078,-0.0789,-0.0763,-0.0749,-0.0745,-0.0715,-0.0706,-0.0682,-0.0647,-0.0631,-0.0628,-0.0583,-0.0589,-0.0588,-0.0581,-0.0581,-0.0579,-0.0577,-0.0602,-0.0603,-0.0603,0,0,-0.083,-0.0836,-0.0826,-0.0803,-0.0775,-0.0765,-0.0761,-0.0736,-0.073,-0.0703,-0.0703,-0.0683,-0.0643,-0.0622,-0.0609,-0.058,-0.0582,-0.0575,-0.0551,-0.055,-0.0549,-0.0547,-0.0541,-0.0539,-0.0563,-0.0563,-0.0563,0,-0.0831,-0.0817,-0.0814,-0.0785,-0.0759,-0.076,-0.073,-0.0722,-0.0695,-0.0685,-0.069,-0.0645,-0.0629,-0.0592,-0.0583,-0.0575,-0.0578,-0.0565,-0.0549,-0.0548,-0.0546,-0.054,-0.0538,-0.0563,-0.0563,-0.0563,-0.0563,0,-0.08,-0.0784,-0.0766,-0.0741,-0.0716,-0.0685,-0.067,-0.0659,-0.0659,-0.065,-0.0622,-0.0604,-0.0575,-0.0569,-0.0566,-0.0542,-0.0549,-0.0559,-0.056,-0.0544,-0.0539,-0.0536,-0.0563,-0.0563,-0.0563,-0.0563,0,0,-0.0804,-0.0759,-0.0749,-0.0725,-0.0687,-0.0661,-0.064,-0.0615,-0.0601,-0.0587,-0.056,-0.0537,-0.0539,-0.0524,-0.0521,-0.0514,-0.051,-0.053,-0.053,-0.0531,-0.0509,-0.0492,-0.0488,-0.0526,-0.0526,-0.0525,-0.0509,0,-0.0776,-0.0724,-0.0707,-0.0652,-0.0616,-0.0605,-0.058,-0.0561,-0.0553,-0.0529,-0.0525,-0.0498,-0.052,-0.0505,-0.0506,-0.0508,-0.0504,-0.0513,-0.0516,-0.0516,-0.0509,-0.0484,-0.0446,-0.0426,-0.0507,-0.0507,-0.0506,0,-0.0732,-0.0707,-0.0651,-0.0601,-0.0583,-0.0561,-0.0519,-0.0495,-0.0475,-0.0467,-0.0455,-0.0456,-0.0439,-0.0465,-0.0466,-0.0475,-0.0491,-0.0497,-0.0497,-0.0478,-0.0494,-0.0453,-0.0419,-0.0497,-0.0503,-0.0503,-0.0504,0,-0.0707,-0.0656,-0.0614,-0.0591,-0.0544,-0.0528,-0.0507,-0.0478,-0.044,-0.043,-0.0398,-0.0406,-0.0385,-0.0417,-0.0431,-0.0455,-0.0431,-0.0467,-0.0465,-0.0464,-0.0427,-0.0423,-0.0472,-0.0471,-0.0471,-0.0471,-0.0472,0,-0.0661,-0.0618,-0.0606,-0.0575,-0.0524,-0.0503,-0.0451,-0.0434,-0.0394,-0.0327,-0.0363,-0.0308,-0.0374,-0.0367,-0.0409,-0.0415,-0.0416,-0.0451,-0.0455,-0.0425,-0.0421,-0.0484,-0.0528,-0.0471,-0.0471,-0.0471,-0.0471,0,-0.0597,-0.0596,-0.0539,-0.0512,-0.0503,-0.0458,-0.0401,-0.0355,-0.0337,-0.025,-0.0239,-0.0228,-0.0221,-0.0274,-0.0307,-0.0364,-0.0411,-0.0391,-0.0347,-0.0347,-0.0441,-0.0485,-0.0517,-0.0523,-0.0401,-0.0401,-0.04,0,-0.055,-0.0521,-0.0485,-0.0454,-0.0437,-0.0389,-0.0344,-0.0321,-0.0268,-0.0179,-0.0124,-0.0103,-0.0053,-0.0104,-0.0205,-0.0275,-0.0351,-0.031,-0.0352,-0.0428,-0.0481,-0.0523,-0.053,-0.0304,-0.0302,-0.0301,-0.0301,0,-0.0458,-0.0453,-0.0414,-0.0356,-0.0317,-0.0251,-0.0199,-0.0152,-0.0099,-0.0025,0.0089,0.0136,0.0081,0.0042,-0.0084,-0.0156,-0.0349,-0.0292,-0.038,-0.041,-0.0448,-0.0461,-0.0336,-0.0292,-0.0293,-0.0293,-0.0294,-0.0294,-0.0387,-0.0338,-0.0304,-0.0231,-0.018,-0.0095,-0.002,0.0041,0.0153,0.0312,0.0288,0.0418,0.0266,0.0108,-0.0023,-0.0253,-0.0274,-0.0327,-0.0374,-0.041,-0.0419,-0.027,-0.0229,-0.0229,-0.023,-0.023,-0.0231,0,-0.0299,-0.025,-0.0178,-0.0088,0.0011,0.0004,0.0107,0.0204,0.0363,0.0495,0.0611,0.0632,0.0456,0.0224,-0.0104,-0.0296,-0.0377,-0.0405,-0.0465,-0.0468,-0.0338,-0.0337,-0.0305,-0.0305,-0.0305,-0.0305,-0.0305,-0.0305,-0.025,-0.0166,-0.0117,0.0074,0.0145,0.0289,0.0362,0.0503,0.0615,0.0843,0.0952,0.0983,0.0796,0.0127,-0.0317,-0.0431,-0.0545,-0.057,-0.0637,-0.0573,-0.057,-0.0567,-0.0579,-0.0598,-0.0598,-0.0731,-0.0733,-0.0734]}],[{"header":{"parameterUnit":"m.s-1","parameterCategory":2,"la1":30.2991,"la2":30.254,"lo1":-89.0895,"lo2":-89.0444,"dy":0.0017,"dx":0.0017,"nx":28,"ny":28,"refTime":"2023-08-03T21:00:00:Z","depth":"2","parameterNumber":2,"parameterNumberName":"U-component_of_CURRENTS"},"data":[0,0,0,0,0,0,0,0,0,0,0,0,0,0,0,0,0,0,0,0,0,0,0,0,0,0,0,0,0,0,0,0,0,0,0,0,0,0,0,0,0,0,0,0,0,0,0,0,0,0,0,0,0,0,0,0,0,0,0.053,0.0536,0,0.0758,0.0757,0.0757,0.0811,0.0813,0.0815,0.0817,0.0907,0.0907,0.0908,0,0,0,0,0,0,0,0,0,0,0,0,0,0.0298,0.0298,0.053,0.0536,0.0543,0.0758,0.0757,0.0757,0.081,0.0813,0.0816,0.0818,0.0907,0.0907,0.0908,0,0,0,0,0,0,0,0,0,0,0,0,0,0.0411,0.0297,0.0529,0.0625,0.0639,0.0758,0.0757,0.0756,0.081,0.0813,0.0816,0.0819,0.0907,0.0907,0.0908,0.0848,0,0,0.091,0.091,0,0,0,0,0,0,0,0,0.0404,0.0414,0.0604,0.0619,0.0635,0.0794,0.0712,0.0794,0.0809,0.0702,0.0817,0.0821,0.088,0.0883,0.0864,0.0852,0.0856,0.091,0.091,0.0911,0.0911,0,0,0,0,0,0,0,0.0396,0.0406,0.0579,0.0612,0.0631,0.0715,0.0727,0.0725,0.0737,0.0712,0.0727,0.0815,0.0882,0.0863,0.0867,0.0857,0.091,0.091,0.0911,0.0911,0.1032,0.1035,0,0,0,0,0,0,0.0436,0.0397,0.0573,0.059,0.0571,0.0718,0.0731,0.0707,0.0741,0.0762,0.0812,0.0817,0.086,0.0866,0.0871,0.101,0.0911,0.0911,0.0911,0.103,0.1033,0.1036,0,0,0,0,0,0,0.0428,0.0444,0.0564,0.0539,0.0565,0.0721,0.0693,0.0711,0.0771,0.0826,0.0836,0.0868,0.0863,0.087,0.0988,0.1007,0.0911,0.0912,0.1026,0.1031,0.1035,0.1156,0,0,0,0,0,0,0.0417,0.0436,0.0422,0.0537,0.0569,0.0696,0.0695,0.0715,0.0836,0.0844,0.0875,0.0883,0.0866,0.0988,0.0989,0.1006,0.0912,0.1023,0.1028,0.1033,0.1148,0.1164,0.1177,0,0,0,0,0,0.0406,0.0469,0.0415,0.0442,0.0541,0.0703,0.0722,0.0821,0.0836,0.0875,0.0938,0.0886,0.102,0.0993,0.0992,0.101,0.102,0.1027,0.1033,0.1142,0.116,0.1176,0,0,0,0,0,0,0.0432,0.0486,0.0431,0.0512,0.0602,0.0729,0.0849,0.0855,0.0921,0.0936,0.0946,0.096,0.1046,0.1031,0.1001,0.1062,0.0999,0.1006,0.1082,0.1099,0.1113,0.1106,0.0913,0,0,0,0,0,0.0403,0.0418,0.0497,0.0569,0.0637,0.0713,0.0795,0.0818,0.0921,0.0952,0.0977,0.1009,0.1051,0.1092,0.1098,0.1158,0.1155,0.1162,0.1177,0.1189,0.1186,0.1228,0.1245,0.1057,0.1057,0.1057,0,0,0.0424,0.0486,0.0481,0.057,0.0662,0.0698,0.0766,0.0912,0.0904,0.0949,0.0994,0.1055,0.108,0.1143,0.1177,0.1152,0.1252,0.1197,0.1207,0.1197,0.1236,0.1255,0.1271,0.1062,0.1061,0.106,0,0,0.0541,0.0548,0.0583,0.0619,0.0754,0.0785,0.0835,0.0931,0.0961,0.1007,0.1048,0.116,0.1182,0.1233,0.1255,0.1356,0.1317,0.135,0.1429,0.1472,0.1488,0.1501,0.1565,0.1583,0.137,0.137,0.137,0,0.0571,0.0595,0.0644,0.0685,0.0749,0.0819,0.0859,0.0872,0.0967,0.102,0.1035,0.1163,0.1205,0.1317,0.1383,0.1381,0.1418,0.1363,0.149,0.1503,0.1514,0.1576,0.1594,0.1376,0.1376,0.1375,0.1374,0,0.0603,0.0662,0.076,0.0743,0.0784,0.0895,0.0898,0.0939,0.0985,0.0992,0.1125,0.1216,0.1307,0.1344,0.1409,0.1531,0.1538,0.1493,0.1443,0.154,0.16,0.1617,0.1386,0.1384,0.1382,0.138,0,0,0.0657,0.0745,0.0777,0.0787,0.0827,0.0876,0.0896,0.0972,0.1016,0.1063,0.116,0.1291,0.1374,0.1412,0.1508,0.1596,0.1756,0.1619,0.1619,0.1678,0.1894,0.182,0.183,0.175,0.1753,0.1755,0.1919,0,0.0715,0.0778,0.0793,0.0855,0.0919,0.0935,0.0948,0.0963,0.1029,0.1113,0.1226,0.1331,0.1378,0.1492,0.1578,0.1706,0.18,0.1717,0.1794,0.1796,0.1712,0.1845,0.1647,0.1768,0.1935,0.1937,0.1939,0,0.0748,0.0805,0.0867,0.0945,0.0972,0.0962,0.1034,0.1041,0.1134,0.1193,0.1308,0.1383,0.1563,0.1569,0.1777,0.1735,0.1836,0.1914,0.1919,0.1808,0.1751,0.1689,0.1792,0.1966,0.1964,0.1962,0.196,0,0.0793,0.0885,0.0952,0.0948,0.0995,0.1038,0.1051,0.1099,0.117,0.1272,0.137,0.1483,0.1617,0.1712,0.1885,0.1855,0.2094,0.2033,0.205,0.2046,0.1865,0.1839,0.2165,0.2165,0.2164,0.2164,0.2163,0,0.0879,0.0979,0.0976,0.1016,0.1079,0.1054,0.1168,0.1183,0.1279,0.1372,0.1441,0.1566,0.1673,0.1818,0.1912,0.2044,0.2094,0.2092,0.2087,0.1906,0.1884,0.2019,0.2,0.217,0.2169,0.2167,0.2166,0,0.0994,0.1018,0.1107,0.1124,0.1144,0.1158,0.1249,0.1292,0.1387,0.152,0.1574,0.1691,0.1857,0.1965,0.2141,0.21,0.2209,0.2246,0.2041,0.2008,0.2127,0.2112,0.225,0.2249,0.2248,0.2247,0.2246,0,0.1056,0.111,0.1154,0.1148,0.1193,0.1241,0.1277,0.1357,0.1405,0.1598,0.1648,0.186,0.1965,0.2162,0.2144,0.2232,0.2311,0.2073,0.1945,0.2156,0.2138,0.2125,0.2113,0.1786,0.1782,0.1778,0.1775,0,0.1132,0.1164,0.1169,0.1196,0.1222,0.128,0.1333,0.1408,0.1498,0.1619,0.1753,0.1863,0.2032,0.1985,0.2064,0.208,0.2014,0.1999,0.2297,0.1773,0.1725,0.1705,0.1707,0.1743,0.1746,0.1749,0.175,0.1752,0.1139,0.1135,0.1125,0.116,0.1184,0.1242,0.1296,0.1354,0.1466,0.1552,0.1692,0.176,0.1771,0.1768,0.1786,0.1789,0.1909,0.1786,0.1795,0.1808,0.1703,0.1653,0.1641,0.1643,0.1645,0.1647,0.1649,0,0.1083,0.1077,0.1066,0.1089,0.1116,0.1189,0.1259,0.1274,0.1356,0.142,0.1508,0.1383,0.1375,0.1483,0.1411,0.1399,0.1374,0.1376,0.1309,0.1341,0.1369,0.1239,0.1057,0.1055,0.1054,0.1053,0,0,0.1009,0.0995,0.1011,0.1017,0.1054,0.1101,0.1143,0.1149,0.1172,0.1152,0.1152,0.1196,0.1326,0.1101,0.1112,0.1083,0.1203,0.1054,0.1521,0.1467,0.1494,0.1592,0.1426,0,0,0,0,0]},{"header":{"parameterUnit":"m.s-1","parameterCategory":2,"la1":30.2991,"la2":30.254,"lo1":-89.0895,"lo2":-89.0444,"dy":0.0017,"dx":0.0017,"nx":28,"ny":28,"refTime":"2023-08-03T21:00:00:Z","depth":"2","parameterNumber":3,"parameterNumberName":"V-component_of_CURRENTS"},"data":[0,0,0,0,0,0,0,0,0,0,0,0,0,0,0,0,0,0,0,0,0,0,0,0,0,0,0,0,0,0,0,0,0,0,0,0,0,0,0,0,0,0,0,0,0,0,0,0,0,0,0,0,0,0,0,0,0,0,-0.0163,-0.0166,0,-0.0314,-0.0314,-0.0314,-0.0367,-0.0369,-0.0371,-0.0372,-0.0469,-0.047,-0.0471,0,0,0,0,0,0,0,0,0,0,0,0,0,0.005,0.0049,-0.0163,-0.0167,-0.0171,-0.0314,-0.0314,-0.0314,-0.0367,-0.0369,-0.0371,-0.0373,-0.0468,-0.047,-0.0471,0,0,0,0,0,0,0,0,0,0,0,0,0,-0.0043,0.0048,-0.0162,-0.0232,-0.0242,-0.0314,-0.0314,-0.0313,-0.0367,-0.0369,-0.0372,-0.0374,-0.0468,-0.0469,-0.0471,-0.0432,0,0,-0.0476,-0.0477,0,0,0,0,0,0,0,0,-0.0038,-0.0048,-0.0218,-0.0228,-0.0239,-0.0345,-0.0276,-0.0359,-0.0366,-0.0294,-0.0372,-0.0375,-0.0436,-0.044,-0.043,-0.0437,-0.0441,-0.0476,-0.0477,-0.0478,-0.0478,0,0,0,0,0,0,0,-0.0031,-0.0042,-0.0198,-0.0223,-0.0235,-0.0269,-0.0281,-0.029,-0.033,-0.0301,-0.0311,-0.0364,-0.0438,-0.0428,-0.0433,-0.0442,-0.0476,-0.0477,-0.0478,-0.0479,-0.0515,-0.0515,0,0,0,0,0,0,-0.0056,-0.0036,-0.0194,-0.0206,-0.0169,-0.0272,-0.0285,-0.0289,-0.0332,-0.0348,-0.0362,-0.0367,-0.0425,-0.0431,-0.0437,-0.0455,-0.0478,-0.0479,-0.048,-0.0515,-0.0515,-0.0515,0,0,0,0,0,0,-0.005,-0.0066,-0.0189,-0.0146,-0.0167,-0.0275,-0.0278,-0.0291,-0.0321,-0.0384,-0.0394,-0.0386,-0.0427,-0.0435,-0.0483,-0.0458,-0.048,-0.0481,-0.0515,-0.0515,-0.0515,-0.0452,0,0,0,0,0,0,-0.0041,-0.0061,-0.0069,-0.0146,-0.0172,-0.0238,-0.0279,-0.0293,-0.036,-0.0367,-0.0407,-0.0416,-0.0429,-0.048,-0.0484,-0.046,-0.0483,-0.0515,-0.0515,-0.0515,-0.0454,-0.045,-0.0447,0,0,0,0,0,-0.0032,-0.007,-0.0066,-0.0088,-0.0177,-0.024,-0.0251,-0.0323,-0.0359,-0.0357,-0.0407,-0.0417,-0.0482,-0.0482,-0.0487,-0.0462,-0.0515,-0.0515,-0.0515,-0.0456,-0.0451,-0.0447,0,0,0,0,0,0,-0.0014,-0.0083,-0.0081,-0.0142,-0.0182,-0.0259,-0.0312,-0.0334,-0.0366,-0.0382,-0.0424,-0.0435,-0.0467,-0.0479,-0.0478,-0.0475,-0.0496,-0.0497,-0.045,-0.0445,-0.0442,-0.0421,-0.0484,0,0,0,0,0,-0.0003,-0.003,-0.0089,-0.0139,-0.017,-0.0227,-0.027,-0.029,-0.0347,-0.0364,-0.0394,-0.0429,-0.0459,-0.047,-0.0493,-0.0489,-0.0498,-0.0476,-0.0472,-0.0469,-0.0457,-0.0464,-0.0458,-0.0514,-0.0514,-0.0514,0,0,0.0011,-0.0065,-0.006,-0.0135,-0.0185,-0.0172,-0.0254,-0.0315,-0.0288,-0.0368,-0.0364,-0.0424,-0.0462,-0.0465,-0.0476,-0.0476,-0.0457,-0.0469,-0.0465,-0.0455,-0.0463,-0.0457,-0.0452,-0.0514,-0.0514,-0.0514,0,0,-0.0021,-0.0062,-0.0081,-0.0085,-0.0168,-0.0186,-0.0203,-0.0254,-0.0271,-0.0272,-0.0334,-0.0388,-0.0408,-0.0432,-0.0448,-0.0436,-0.0447,-0.0444,-0.0391,-0.0397,-0.0392,-0.0388,-0.0382,-0.0378,-0.0428,-0.0427,-0.0427,0,-0.0025,-0.0046,-0.0099,-0.0108,-0.012,-0.0181,-0.0159,-0.0161,-0.0207,-0.0219,-0.0263,-0.0327,-0.0381,-0.0388,-0.0402,-0.0423,-0.0431,-0.0402,-0.0389,-0.0385,-0.0382,-0.0378,-0.0374,-0.0424,-0.0425,-0.0425,-0.0425,0,0.0015,-0.0027,-0.0064,-0.0056,-0.0046,-0.007,-0.0058,-0.0052,-0.0093,-0.0097,-0.0137,-0.0218,-0.0261,-0.0286,-0.0349,-0.035,-0.0366,-0.0393,-0.0395,-0.0372,-0.037,-0.0366,-0.042,-0.0421,-0.0422,-0.0423,0,0,-0.0005,-0.0029,-0.0048,-0.0031,-0.0021,-0.0011,0.0038,0.0045,0.0063,0.0032,0.0032,-0.0052,-0.0126,-0.0153,-0.0237,-0.0257,-0.0267,-0.0321,-0.0322,-0.0303,-0.0274,-0.0256,-0.0251,-0.0296,-0.0295,-0.0295,-0.0278,0,0.0,0.0009,0.0006,0.0048,0.0058,0.0076,0.0129,0.0168,0.0151,0.0154,0.0073,0.0027,-0.006,-0.0122,-0.0146,-0.0252,-0.0258,-0.0269,-0.0309,-0.031,-0.0287,-0.0247,-0.0253,-0.0236,-0.0275,-0.0274,-0.0274,0,0.003,0.0013,0.0054,0.0081,0.0091,0.0141,0.021,0.0247,0.0263,0.0249,0.0217,0.0144,0.0081,-0.001,-0.0094,-0.01,-0.0182,-0.0246,-0.0247,-0.0248,-0.0286,-0.0269,-0.0229,-0.0269,-0.0269,-0.027,-0.027,0,0.0029,0.0036,0.0055,0.0089,0.0142,0.0161,0.0193,0.0254,0.0264,0.0276,0.027,0.0233,0.016,0.0091,-0.0057,-0.0083,-0.0138,-0.018,-0.0219,-0.0218,-0.0238,-0.0239,-0.022,-0.022,-0.022,-0.022,-0.022,0,0.0016,0.0003,0.0053,0.0059,0.0114,0.0172,0.0192,0.0248,0.0274,0.0309,0.0275,0.0287,0.0169,0.0116,0.0006,-0.0081,-0.0077,-0.0191,-0.0206,-0.0216,-0.0216,-0.0265,-0.027,-0.0219,-0.022,-0.022,-0.022,0,-0.0026,-0.0017,0.0006,0.0069,0.0081,0.0137,0.0166,0.0213,0.0232,0.0276,0.0267,0.0297,0.026,0.0162,0.0053,-0.0015,-0.0097,-0.0136,-0.0131,-0.0145,-0.0184,-0.0187,-0.0147,-0.0146,-0.0145,-0.0145,-0.0144,0,-0.0041,-0.004,0.0018,0.0059,0.0056,0.0103,0.014,0.0176,0.0233,0.0299,0.0347,0.0318,0.0363,0.0249,0.0108,-0.001,-0.0067,-0.0098,-0.0148,-0.0155,-0.0174,-0.0178,-0.0181,-0.0151,-0.0151,-0.015,-0.015,0,-0.0054,-0.0051,-0.0006,0.0054,0.0096,0.0154,0.0206,0.024,0.0312,0.0375,0.0489,0.0518,0.0412,0.0323,0.0152,0.006,-0.007,-0.0093,-0.0096,-0.0165,-0.0156,-0.0176,-0.018,-0.0147,-0.0147,-0.0147,-0.0148,-0.0148,-0.0047,0.0002,0.0047,0.0121,0.0176,0.0256,0.0308,0.0388,0.0485,0.0627,0.0631,0.0685,0.0505,0.0319,0.0153,-0.0037,-0.0034,-0.0109,-0.0112,-0.0114,-0.0114,-0.0104,-0.0084,-0.0084,-0.0084,-0.0084,-0.0084,0,-0.0006,0.0046,0.0125,0.0219,0.03,0.0295,0.0413,0.0499,0.0658,0.0732,0.0828,0.0698,0.0573,0.0352,0.0073,-0.0073,-0.011,-0.0121,-0.0151,-0.0152,-0.0154,-0.0158,-0.0139,-0.0139,-0.014,-0.014,0,0,0.0036,0.0104,0.0159,0.0323,0.0381,0.0495,0.0579,0.0719,0.0798,0.0917,0.0917,0.0898,0.0614,0.0401,0.0177,0.0018,-0.0027,-0.0009,0.0051,0.0041,0.0041,-0.0132,-0.0137,0,0,0,0,0]}],[{"header":{"parameterUnit":"m.s-1","parameterCategory":2,"la1":30.2991,"la2":30.254,"lo1":-89.0895,"lo2":-89.0444,"dy":0.0017,"dx":0.0017,"nx":28,"ny":28,"refTime":"2023-08-03T21:00:00:Z","depth":"4","parameterNumber":2,"parameterNumberName":"U-component_of_CURRENTS"},"data":[0,0,0,0,0,0,0,0,0,0,0,0,0,0,0,0,0,0,0,0,0,0,0,0,0,0,0,0,0,0,0,0,0,0,0,0,0,0,0,0,0,0,0,0,0,0,0,0,0,0,0,0,0,0,0,0,0,0,-0.0363,-0.0364,0,-0.0456,-0.0457,-0.0458,-0.0508,-0.0508,-0.0508,-0.0508,-0.0574,-0.0576,-0.0578,0,0,0,0,0,0,0,0,0,0,0,0,0,-0.0335,-0.0334,-0.0363,-0.0364,-0.0365,-0.0456,-0.0457,-0.0458,-0.0508,-0.0508,-0.0508,-0.0508,-0.0574,-0.0576,-0.0578,0,0,0,0,0,0,0,0,0,0,0,0,0,-0.0379,-0.0334,-0.0363,-0.04,-0.0405,-0.0455,-0.0457,-0.0459,-0.0507,-0.0508,-0.0508,-0.0508,-0.0573,-0.0576,-0.0578,-0.0593,0,0,-0.0586,-0.0587,0,0,0,0,0,0,0,0,-0.0376,-0.038,-0.0394,-0.0398,-0.0403,-0.047,-0.0472,-0.0502,-0.0507,-0.0469,-0.0508,-0.0508,-0.0537,-0.0542,-0.0561,-0.0596,-0.0599,-0.0586,-0.0588,-0.0589,-0.059,0,0,0,0,0,0,0,-0.0373,-0.0377,-0.04,-0.0395,-0.04,-0.0449,-0.0454,-0.0478,-0.0501,-0.0472,-0.0476,-0.0486,-0.0539,-0.0558,-0.0562,-0.06,-0.0586,-0.0589,-0.059,-0.0591,-0.0701,-0.0703,0,0,0,0,0,0,-0.0355,-0.0373,-0.0397,-0.0403,-0.0389,-0.0449,-0.0455,-0.0449,-0.0501,-0.051,-0.0485,-0.0487,-0.0553,-0.0559,-0.0565,-0.0652,-0.0589,-0.0591,-0.0593,-0.07,-0.0702,-0.0703,0,0,0,0,0,0,-0.0354,-0.0356,-0.0394,-0.0391,-0.0399,-0.0448,-0.0441,-0.045,-0.0477,-0.0512,-0.0519,-0.0503,-0.0554,-0.0561,-0.0597,-0.0652,-0.0593,-0.0595,-0.0698,-0.07,-0.0702,-0.0783,0,0,0,0,0,0,-0.0352,-0.0354,-0.035,-0.0389,-0.0399,-0.0427,-0.0442,-0.0452,-0.0482,-0.0486,-0.0529,-0.0535,-0.0554,-0.0593,-0.06,-0.0655,-0.0597,-0.0697,-0.0699,-0.0702,-0.0778,-0.0787,-0.0795,0,0,0,0,0,-0.0351,-0.0354,-0.0349,-0.0352,-0.0388,-0.0428,-0.0437,-0.0474,-0.0482,-0.0497,-0.0528,-0.0534,-0.0615,-0.0596,-0.0604,-0.0661,-0.0695,-0.0698,-0.0701,-0.0775,-0.0786,-0.0795,0,0,0,0,0,0,-0.0356,-0.0361,-0.0355,-0.0363,-0.0389,-0.0436,-0.0463,-0.0476,-0.0513,-0.0523,-0.0546,-0.0555,-0.0607,-0.0613,-0.0592,-0.0697,-0.0658,-0.0663,-0.0712,-0.0722,-0.073,-0.0713,-0.0599,0,0,0,0,0,-0.0347,-0.0342,-0.0361,-0.037,-0.0384,-0.0419,-0.0442,-0.0463,-0.0499,-0.0517,-0.0541,-0.0578,-0.0625,-0.0654,-0.068,-0.0736,-0.0703,-0.0777,-0.0786,-0.0793,-0.0783,-0.0783,-0.079,-0.0713,-0.0713,-0.0713,0,0,-0.0347,-0.0355,-0.035,-0.0369,-0.0398,-0.0425,-0.0434,-0.0475,-0.05,-0.0517,-0.0561,-0.0598,-0.064,-0.0708,-0.0733,-0.0724,-0.0795,-0.0797,-0.0803,-0.0788,-0.0787,-0.0794,-0.0801,-0.0715,-0.0715,-0.0715,0,0,-0.0369,-0.0358,-0.0368,-0.0391,-0.0429,-0.0443,-0.045,-0.0492,-0.0514,-0.0556,-0.0587,-0.0651,-0.0701,-0.0761,-0.0796,-0.0861,-0.0828,-0.0875,-0.0923,-0.0925,-0.0931,-0.0936,-0.0892,-0.0893,-0.0894,-0.0895,-0.0895,0,-0.0372,-0.039,-0.0383,-0.0416,-0.0453,-0.0447,-0.0493,-0.0502,-0.0547,-0.0581,-0.0574,-0.069,-0.0732,-0.0837,-0.0875,-0.0884,-0.0852,-0.0888,-0.0935,-0.094,-0.0943,-0.0897,-0.0897,-0.0899,-0.0898,-0.0898,-0.0897,0,-0.0408,-0.0431,-0.0452,-0.0474,-0.0504,-0.0547,-0.0559,-0.0581,-0.06,-0.0621,-0.0704,-0.0759,-0.0825,-0.0875,-0.0904,-0.0978,-0.0934,-0.0935,-0.0909,-0.0956,-0.0904,-0.0902,-0.0905,-0.0903,-0.0902,-0.0901,0,0,-0.0396,-0.0461,-0.047,-0.0504,-0.0552,-0.0576,-0.0619,-0.0666,-0.0689,-0.0727,-0.0782,-0.0894,-0.0902,-0.094,-0.0988,-0.1025,-0.1043,-0.1,-0.0998,-0.0953,-0.1004,-0.08,-0.0777,-0.1049,-0.1049,-0.1049,-0.0954,0,-0.0436,-0.0507,-0.0538,-0.0605,-0.0645,-0.0677,-0.0709,-0.0745,-0.0767,-0.0794,-0.0859,-0.0894,-0.0926,-0.0961,-0.1008,-0.1022,-0.1042,-0.1065,-0.0967,-0.0963,-0.0774,-0.077,-0.1051,-0.0952,-0.0951,-0.0951,-0.095,0,-0.046,-0.0512,-0.0602,-0.0678,-0.0701,-0.0725,-0.0793,-0.0814,-0.0846,-0.0866,-0.0914,-0.0918,-0.0977,-0.0982,-0.1009,-0.1014,-0.1012,-0.1023,-0.1019,-0.0793,-0.0754,-0.0898,-0.0946,-0.0946,-0.0946,-0.0947,-0.0947,0,-0.0455,-0.0548,-0.0627,-0.066,-0.0739,-0.0784,-0.0795,-0.0839,-0.0836,-0.0868,-0.0857,-0.0925,-0.0904,-0.0939,-0.0918,-0.0966,-0.0906,-0.0971,-0.0785,-0.0769,-0.095,-0.0946,-0.0984,-0.0984,-0.0984,-0.0984,-0.0985,0,-0.047,-0.0527,-0.0619,-0.0663,-0.071,-0.0769,-0.079,-0.0817,-0.0828,-0.0786,-0.085,-0.0808,-0.0887,-0.085,-0.0886,-0.0767,-0.0856,-0.0763,-0.0727,-0.0984,-0.0985,-0.0947,-0.0944,-0.0981,-0.0981,-0.0982,-0.0983,0,-0.0436,-0.0508,-0.0604,-0.071,-0.0708,-0.0732,-0.0715,-0.0708,-0.0728,-0.0672,-0.0659,-0.068,-0.0595,-0.0633,-0.065,-0.0652,-0.062,-0.0564,-0.077,-0.0751,-0.0506,-0.0508,-0.0374,-0.0366,-0.0359,-0.0353,-0.0348,0,-0.0429,-0.0484,-0.0606,-0.0616,-0.0651,-0.0654,-0.0625,-0.0638,-0.0602,-0.0556,-0.0509,-0.0431,-0.0422,-0.0272,-0.0349,-0.0334,-0.0354,-0.0351,-0.0509,-0.0462,-0.0442,-0.0456,-0.0467,-0.0337,-0.0336,-0.0334,-0.0332,0,-0.0429,-0.0494,-0.0557,-0.0563,-0.0554,-0.0537,-0.0486,-0.0447,-0.0427,-0.0434,-0.0301,-0.025,-0.0134,-0.0136,-0.0077,-0.0106,-0.0374,-0.0281,-0.0299,-0.0449,-0.0417,-0.0406,-0.0426,-0.0308,-0.0312,-0.0314,-0.0315,0,-0.0428,-0.0442,-0.0504,-0.0495,-0.0479,-0.0427,-0.042,-0.0325,-0.0279,-0.0227,-0.0154,-0.0096,-0.0077,-0.0006,0.003,0.0066,0.0009,-0.0073,-0.0104,-0.0131,-0.0098,-0.0025,0.0264,0,0,0,0,0,-0.0397,-0.0376,-0.0396,-0.0399,-0.039,-0.0359,-0.0323,-0.032,-0.0273,-0.0136,-0.0142,-0.0017,0.0085,0.0092,0.0173,0.0096,-0.0027,0.0184,-0.0149,-0.0176,-0.0203,-0.0188,0,0,0,0,0,0,-0.0363,-0.0373,-0.0373,-0.0313,-0.028,-0.0237,-0.0219,-0.0206,-0.0133,-0.0092,-0.0031,0.0013,0.0099,0.0077,0.0189,0.0194,-0.0009,0.0226,0.0227,-0.016,-0.0185,-0.0207,-0.0201,0,0,0,0,0]},{"header":{"parameterUnit":"m.s-1","parameterCategory":2,"la1":30.2991,"la2":30.254,"lo1":-89.0895,"lo2":-89.0444,"dy":0.0017,"dx":0.0017,"nx":28,"ny":28,"refTime":"2023-08-03T21:00:00:Z","depth":"4","parameterNumber":3,"parameterNumberName":"V-component_of_CURRENTS"},"data":[0,0,0,0,0,0,0,0,0,0,0,0,0,0,0,0,0,0,0,0,0,0,0,0,0,0,0,0,0,0,0,0,0,0,0,0,0,0,0,0,0,0,0,0,0,0,0,0,0,0,0,0,0,0,0,0,0,0,0.0404,0.0405,0,0.0398,0.0398,0.0397,0.0401,0.0401,0.0402,0.0403,0.035,0.0348,0.0346,0,0,0,0,0,0,0,0,0,0,0,0,0,0.0444,0.0442,0.0404,0.0405,0.0405,0.0398,0.0398,0.0397,0.0401,0.0401,0.0402,0.0403,0.035,0.0348,0.0346,0,0,0,0,0,0,0,0,0,0,0,0,0,0.0426,0.0442,0.0404,0.041,0.041,0.0398,0.0398,0.0397,0.04,0.0401,0.0402,0.0403,0.0351,0.0348,0.0345,0.0308,0,0,0.0336,0.0335,0,0,0,0,0,0,0,0,0.0427,0.0424,0.0408,0.0409,0.041,0.0406,0.0393,0.0367,0.04,0.0399,0.0403,0.0404,0.0367,0.0362,0.0353,0.0305,0.0303,0.0336,0.0334,0.0333,0.0332,0,0,0,0,0,0,0,0.0428,0.0424,0.0397,0.0409,0.041,0.0422,0.0419,0.0388,0.0373,0.0399,0.0401,0.0408,0.0366,0.0355,0.0351,0.0302,0.0336,0.0333,0.0331,0.033,0.0194,0.0192,0,0,0,0,0,0,0.0437,0.0425,0.0397,0.0397,0.0427,0.042,0.0418,0.0402,0.0374,0.0373,0.0407,0.0408,0.036,0.0355,0.0349,0.0299,0.0333,0.033,0.0328,0.0196,0.0194,0.0192,0,0,0,0,0,0,0.0437,0.0433,0.0397,0.0417,0.0414,0.0419,0.0401,0.0402,0.04,0.0382,0.0378,0.0408,0.0361,0.0354,0.0318,0.0297,0.0329,0.0326,0.0198,0.0195,0.0193,0.0201,0,0,0,0,0,0,0.0438,0.0432,0.0428,0.0416,0.0413,0.0385,0.0401,0.0401,0.0406,0.0407,0.0381,0.0377,0.0361,0.0323,0.0315,0.0294,0.0323,0.02,0.0197,0.0193,0.0203,0.0198,0.0195,0,0,0,0,0,0.0439,0.0417,0.0427,0.0424,0.0404,0.0384,0.0382,0.0387,0.0405,0.0392,0.0378,0.0378,0.0295,0.0319,0.0311,0.0288,0.0202,0.0198,0.0194,0.0204,0.0199,0.0195,0,0,0,0,0,0,0.0421,0.0416,0.0426,0.0402,0.0397,0.0387,0.0382,0.039,0.0369,0.0374,0.036,0.0353,0.0311,0.0292,0.0319,0.0234,0.0246,0.024,0.0257,0.0252,0.0248,0.0257,0.0321,0,0,0,0,0,0.042,0.0407,0.0404,0.0386,0.0386,0.0388,0.0386,0.0387,0.0372,0.0365,0.0348,0.0319,0.0283,0.0266,0.023,0.0188,0.019,0.0163,0.0159,0.0157,0.0155,0.0148,0.0145,0.0178,0.0178,0.0178,0,0,0.0407,0.0407,0.0398,0.0384,0.0383,0.0356,0.0387,0.0378,0.0349,0.036,0.0315,0.0306,0.0268,0.022,0.0199,0.0207,0.0146,0.0151,0.015,0.015,0.0144,0.0141,0.0138,0.0175,0.0176,0.0176,0,0,0.0376,0.0377,0.036,0.0351,0.0354,0.0343,0.0343,0.0332,0.0325,0.029,0.0286,0.0267,0.0213,0.0183,0.0161,0.011,0.0126,0.0098,0.0089,0.0082,0.0081,0.0079,0.0081,0.0079,0.0097,0.0097,0.0097,0,0.0367,0.0343,0.0351,0.033,0.0322,0.0334,0.0306,0.0285,0.0262,0.0254,0.0272,0.0209,0.0188,0.0131,0.0121,0.0102,0.0113,0.0118,0.0082,0.008,0.0078,0.008,0.0079,0.0097,0.0097,0.0097,0.0097,0,0.0319,0.0306,0.0293,0.0267,0.0249,0.0232,0.021,0.0191,0.0197,0.0186,0.0154,0.0138,0.0114,0.0095,0.0098,0.0065,0.0082,0.0083,0.0105,0.0076,0.0079,0.0077,0.0097,0.0097,0.0097,0.0097,0,0,0.0295,0.0267,0.0271,0.0256,0.0223,0.0204,0.0151,0.0118,0.0099,0.0086,0.0067,0.0025,0.0062,0.004,0.0044,0.0038,0.0044,0.0068,0.0068,0.0091,0.0048,0.0011,0.0006,0.0057,0.0057,0.0056,0.0057,0,0.0267,0.0234,0.0217,0.0168,0.0145,0.0129,0.0082,0.0051,0.0038,0.0016,0.0015,0.0008,0.0025,0.005,0.0038,0.0042,0.004,0.0044,0.0054,0.0054,0.0042,0.0002,0.0055,0.0056,0.0056,0.0056,0.0055,0,0.0234,0.022,0.0199,0.0139,0.0129,0.0117,0.0073,0.003,-0.0007,-0.001,-0.0013,-0.0009,-0.0015,0.0019,0.0008,0.0021,0.0041,0.0041,0.0042,0.0003,0.0013,0.0086,0.0053,0.0053,0.0053,0.0053,0.0053,0,0.0249,0.0196,0.0195,0.018,0.0124,0.0134,0.0111,0.0065,0.0039,0.0022,0.0013,-0.001,0.0013,0.0013,0.0015,0.0034,-0.0001,0.002,-0.0005,-0.0007,0.0029,0.0031,0.0015,0.0015,0.0015,0.0015,0.0015,0,0.0228,0.0217,0.0232,0.0237,0.024,0.0187,0.0188,0.0155,0.0115,0.0072,0.0052,0.0014,0.0021,-0.0009,0.0001,-0.0021,-0.0009,-0.0017,-0.0017,0.003,0.0032,0.0029,0.003,0.0015,0.0015,0.0015,0.0015,0,0.025,0.0251,0.0261,0.026,0.0269,0.0298,0.0276,0.0236,0.0211,0.016,0.0167,0.007,0.0024,-0.0007,-0.0021,-0.0034,-0.0053,-0.0059,-0.0015,-0.0011,-0.0043,-0.0041,-0.0076,-0.0078,-0.0079,-0.008,-0.0081,0,0.0264,0.0287,0.0335,0.0373,0.0407,0.0429,0.0409,0.034,0.028,0.017,0.0125,0.0072,0.0007,-0.0031,-0.0082,-0.0096,-0.0092,-0.0091,-0.0061,-0.006,-0.0055,-0.0052,-0.0049,-0.0083,-0.0083,-0.0084,-0.0084,0,0.0309,0.0363,0.0369,0.0449,0.0484,0.0476,0.0451,0.0417,0.0287,0.0239,0.0144,0.0093,0.0009,-0.0038,-0.0057,-0.0074,-0.0092,-0.0104,-0.01,-0.0072,-0.0068,-0.0062,-0.0057,-0.0088,-0.0088,-0.0087,-0.0087,0,0.0371,0.0387,0.0424,0.0484,0.0531,0.0529,0.0503,0.0416,0.0356,0.0218,0.0179,0.0088,0.003,-0.0032,-0.0072,-0.0084,-0.0071,-0.0043,-0.0042,-0.0038,-0.0042,-0.0032,-0.005,0,0,0,0,0,0.0412,0.0399,0.0439,0.0476,0.0528,0.056,0.0497,0.0434,0.0302,0.026,0.0236,0.016,0.0081,0.0009,0.0003,-0.0109,-0.0093,-0.0122,-0.0062,-0.0112,-0.0107,-0.0124,0,0,0,0,0,0,0.0416,0.0449,0.0413,0.0471,0.052,0.0527,0.0516,0.0428,0.0394,0.0295,0.0263,0.0188,0.0115,0.0133,0.0027,0.0001,0.0041,-0.0181,-0.0182,-0.0115,-0.011,-0.0106,-0.0122,0,0,0,0,0]}]]